Weather History for Managua, Nicaragua

Change the Weather History Date:

Wednesday, November 14, 2012

  Actual Average Record
Temperature  
Mean Temperature 78 °F -  
Max Temperature 89 °F 86 °F 91 °F (1996)
Min Temperature 68 °F 70 °F 68 °F (1998)
Cooling Degree Days 14    
Growing Degree Days 28 (Base 50)    
Moisture  
Dew Point 66 °F    
Average Humidity 66    
Maximum Humidity 94    
Minimum Humidity 43    
Precipitation  
Precipitation 0.00 in - - ()
Sea Level Pressure  
Sea Level Pressure 29.87 in    
Wind  
Wind Speed 3 mph ()    
Max Wind Speed 12 mph    
Max Gust Speed -    
Visibility 6.2 miles    
Events      
Averages and records for this station are not official NWS values.
T = Trace of Precipitation, MM = Missing Value Source: Averaged Metar Reports

Daily Weather History Graph

Daily Weather History Graph

Search for Another Location

Airport:

Trip Planner

Search our weather history database for the weather conditions in past years. The results will help you decide how hot, cold, wet, or windy it might be!

Date:

Astronomy

Nov. 14, 2012 Rise Set
Actual Time 5:41 AM CST 5:16 PM CST
Civil Twilight 5:19 AM CST 5:38 PM CST
Nautical Twilight 4:54 AM CST 6:04 PM CST
Astronomical Twilight 4:28 AM CST 6:29 PM CST
Moon 6:22 AM CST (11/14) 6:14 PM CST (11/14)
Length of Visible Light 12h 18m
Length of Day
11h 34m
New Moon, 1% of the Moon is Illuminated
Nov 14
New Moon
Nov 20
First Quarter
Nov 28
Full
Dec 6
Last Quarter
Dec 13
New

Hourly Weather History & Observations

Time (CST) Temp. Heat Index Dew Point Humidity Pressure Visibility Wind Dir Wind Speed Gust Speed Precip Events Conditions
12:00 AM 75.2 °F - 69.8 °F 83% 29.86 in 6.2 mi Calm Calm - N/A   Partly Cloudy
1:00 AM 75.2 °F - 69.8 °F 83% 29.86 in 6.2 mi Calm Calm - N/A   Partly Cloudy
2:00 AM 71.6 °F - 68.0 °F 88% 29.83 in 6.2 mi South 4.6 mph - N/A   Partly Cloudy
3:00 AM 69.8 °F - 68.0 °F 94% 29.83 in 6.2 mi Calm Calm - N/A   Partly Cloudy
4:00 AM 69.8 °F - 66.2 °F 88% 29.83 in 6.2 mi Calm Calm - N/A   Partly Cloudy
5:00 AM 69.8 °F - 66.2 °F 88% 29.83 in 6.2 mi Calm Calm - N/A   Partly Cloudy
6:00 AM 68.0 °F - 64.4 °F 88% 29.86 in 6.2 mi Calm Calm - N/A   Partly Cloudy
7:00 AM 73.4 °F - 62.6 °F 69% 29.89 in - SE 4.6 mph - N/A   Clear
8:00 AM 80.6 °F 82.3 °F 64.4 °F 58% 29.92 in - ESE 6.9 mph - N/A   Clear
9:00 AM 82.4 °F 83.4 °F 62.6 °F 51% 29.92 in 6.2 mi ENE 6.9 mph - N/A   Scattered Clouds
10:00 AM 86.0 °F 87.3 °F 64.4 °F 48% 29.92 in 6.2 mi East 9.2 mph - N/A   Partly Cloudy
11:00 AM 87.8 °F 89.4 °F 64.4 °F 46% 29.89 in 6.2 mi NE 11.5 mph - N/A   Scattered Clouds
12:00 PM 89.6 °F 91.1 °F 64.4 °F 43% 29.86 in 6.2 mi East 11.5 mph - N/A   Partly Cloudy
1:00 PM 89.6 °F 91.1 °F 64.4 °F 43% 29.83 in 6.2 mi East 9.2 mph - N/A   Partly Cloudy
2:00 PM 89.6 °F 91.1 °F 64.4 °F 43% 29.83 in 6.2 mi East 11.5 mph - N/A   Partly Cloudy
3:00 PM 89.6 °F 92.2 °F 66.2 °F 46% 29.80 in 6.2 mi East 11.5 mph - N/A   Scattered Clouds
4:00 PM 89.6 °F 92.2 °F 66.2 °F 46% 29.80 in 6.2 mi East 9.2 mph - N/A   Partly Cloudy
5:00 PM 86.0 °F 89.4 °F 68.0 °F 55% 29.83 in 6.2 mi ENE 4.6 mph - N/A   Scattered Clouds
6:00 PM 82.4 °F 85.4 °F 68.0 °F 62% 29.86 in 6.2 mi East 4.6 mph - N/A   Scattered Clouds
7:00 PM 80.6 °F 83.2 °F 68.0 °F 65% 29.89 in 6.2 mi East 4.6 mph - N/A   Scattered Clouds
8:00 PM 78.8 °F - 66.2 °F 65% 29.92 in 6.2 mi East 4.6 mph - N/A   Partly Cloudy
9:00 PM 75.2 °F - 68.0 °F 78% 29.92 in 6.2 mi Calm Calm - N/A   Partly Cloudy
10:00 PM 75.2 °F - 68.0 °F 78% 29.92 in 6.2 mi Calm Calm - N/A   Partly Cloudy
11:00 PM 73.4 °F - 68.0 °F 83% 29.92 in 6.2 mi Calm Calm - N/A   Partly Cloudy